This is the latest recevied weather packets stored in our database for station/object K1RFS. If no packets are shown the sender has not sent any weather packets the latest 10 day(s).
| Time | Temp. | Humidity | Pressure | Rain* | Wind** | Luminosity | Snow |
|---|---|---|---|---|---|---|---|
| 1777859947 | 20° C | 22% | 995.9 hPa | 0 mm | - | 8 W/m² | - |
| 1777859643 | 20° C | 21% | 995.8 hPa | 0 mm | - | 10 W/m² | - |
| 1777859339 | 20° C | 21% | 995.6 hPa | 0 mm | - | 12 W/m² | - |
| 1777859035 | 20.56° C | 21% | 995.6 hPa | 0 mm | - | 15 W/m² | - |
| 1777858733 | 20.56° C | 21% | 995.9 hPa | 0 mm | - | 18 W/m² | - |
| 1777858431 | 20.56° C | 21% | 995.8 hPa | 0 mm | - | 21 W/m² | - |
| 1777858127 | 20.56° C | 21% | 995.9 hPa | 0 mm | - | 24 W/m² | - |
| 1777857825 | 21.11° C | 20% | 995.9 hPa | 0 mm | - | 27 W/m² | - |
| 1777857522 | 21.11° C | 20% | 995.8 hPa | 0 mm | - | 30 W/m² | - |
| 1777857218 | 21.67° C | 20% | 995.9 hPa | 0 mm | - | 36 W/m² | - |
| 1777856915 | 21.67° C | 19% | 996 hPa | 0 mm | - | 50 W/m² | - |
| 1777856610 | 21.67° C | 19% | 996.1 hPa | 0 mm | - | 54 W/m² | - |
| 1777856307 | 21.67° C | 19% | 995.8 hPa | 0 mm | - | 60 W/m² | - |
| 1777856004 | 21.67° C | 18% | 996.1 hPa | 0 mm | - | 75 W/m² | - |
| 1777855702 | 21.67° C | 18% | 996.4 hPa | 0 mm | - | 76 W/m² | - |
| 1777855399 | 21.67° C | 18% | 996.1 hPa | 0 mm | - | 72 W/m² | - |
| 1777855095 | 22.22° C | 17% | 996.4 hPa | 0 mm | - | 78 W/m² | - |
| 1777854793 | 22.22° C | 18% | 996.4 hPa | 0 mm | - | 90 W/m² | - |
| 1777854489 | 22.22° C | 17% | 996.4 hPa | 0 mm | - | 87 W/m² | - |
| 1777854186 | 22.22° C | 17% | 996.6 hPa | 0 mm | - | 93 W/m² | - |
| 1777853884 | 22.22° C | 17% | 996.2 hPa | 0 mm | - | 100 W/m² | - |
| 1777853580 | 22.22° C | 17% | 996.5 hPa | 0 mm | - | 101 W/m² | - |
| 1777853277 | 22.78° C | 17% | 996.4 hPa | 0 mm | - | 105 W/m² | - |
| 1777852974 | 22.22° C | 16% | 996.5 hPa | 0 mm | - | 108 W/m² | - |
| 1777852672 | 22.78° C | 16% | 996.5 hPa | 0 mm | - | 113 W/m² | - |
* Rain latest hour (hover to see other rain measurements)
** Current wind speed in m/s (hover to see current wind gust speed)